Printer-friendly version
Follow the MPC on Twitter Follow the MPC on Facebook The MPC blog
Minor Planet Center

MPEC 2010-D38 : 2010 DP

The following Minor Planet Electronic Circular may be linked-to from your own Web pages, but must not otherwise be redistributed electronically.

A form allowing access to any MPEC is at the bottom of this page.


Read MPEC 2010-D37 Read MPEC 2010-D39


M.P.E.C. 2010-D38                                Issued 2010 Feb. 17, 21:17 UT

     The Minor Planet Electronic Circulars contain information on unusual
         minor planets and routine data on comets.  They are published
   on behalf of Commission 20 of the International Astronomical Union by the
          Minor Planet Center, Smithsonian Astrophysical Observatory,
                          Cambridge, MA 02138, U.S.A.

             Prepared using the Tamkin Foundation Computer Network

                              MPC@CFA.HARVARD.EDU
          URL http://www.cfa.harvard.edu/iau/mpc.html  ISSN 1523-6714

                                    2010 DP

Observations:
     K10D00P* C2010 02 16.52093 15 08 45.31 -06 19 18.3          19.4 V ED038G96
     K10D00P  C2010 02 16.52620 15 08 45.67 -06 19 06.9          20.2 V ED038G96
     K10D00P  C2010 02 16.53157 15 08 46.10 -06 18 55.2          20.4 V ED038G96
     K10D00P  C2010 02 16.53693 15 08 46.53 -06 18 43.5          20.7 V ED038G96
     K10D00P  C2010 02 17.48722 15 10 03.28 -05 44 32.5          20.1 R ED038H01
     K10D00P  C2010 02 17.49229 15 10 03.66 -05 44 21.5          20.3 R ED038H01
     K10D00P  C2010 02 17.50387 15 10 04.54 -05 43 56.3          20.1 R ED038H01
     K10D00P  C2010 02 17.50828 15 10 04.90 -05 43 46.4          20.6 R ED038926
     K10D00P  C2010 02 17.51169 15 10 05.17 -05 43 38.2          21.3 R ED038926
     K10D00P  C2010 02 17.51259 15 10 05.20 -05 43 37.3          20.1 R ED038H01
     K10D00P  C2010 02 17.51510 15 10 05.43 -05 43 31.3          20.7 R ED038926

Observer details:
926 Tenagra II Observatory.  Observers P. R. Holvorcem, M. Schwartz.  Measurer
    P. R. Holvorcem.  0.81-m f/7 Ritchey-Chretien + CCD.
G96 Mt. Lemmon Survey.  Observer A. Boattini.  Measurers J. D. Ahern,
    E. C. Beshore, A. Boattini, G. J. Garradd, A. R. Gibbs, A. D. Grauer,
    R. E. Hill, R. A. Kowalski, S. M. Larson, R. H. McNaught.  1.5-m reflector
    + CCD.
H01 Magdalena Ridge Observatory, Socorro.  Observer W. H. Ryan.  2.4-m f/8.9
    reflector + CCD.

Orbital elements:
2010 DP                                                  Earth MOID = 0.0976 AU
Epoch 2010 Feb. 13.0 TT = JDT 2455240.5                 MPC
M  96.13678              (2000.0)            P               Q
n   0.77481598     Peri.  239.54181     +0.62092009     -0.77869275
a   1.1740061      Node   170.39548     +0.76398947     +0.62685919
e   0.3242753      Incl.   32.63459     -0.17543753     -0.02617543
P   1.27           H   18.9           G   0.15
From 11 observations 2010 Feb. 16-17.  E-assumed.

Ephemeris:
2010 DP                  a,e,i = 1.17, 0.32, 33                  q = 0.7933
Date    TT    R. A. (2000) Decl.     Delta      r     Elong.  Phase     V
2010 02 13    15 03.72   -08 20.2    0.755    1.324    98.0    47.6    20.7
2010 02 23    15 16.74   -02 13.2    0.704    1.364   106.1    44.2    20.5
2010 03 05    15 25.41   +05 04.3    0.661    1.401   114.4    40.1    20.3
2010 03 15    15 28.80   +13 19.5    0.632    1.434   122.1    36.0    20.2
2010 03 25    15 25.98   +21 57.4    0.621    1.462   127.8    32.6    20.1
2010 04 04    15 16.54   +30 04.2    0.630    1.487   130.3    30.9    20.1
2010 04 14    15 00.99   +36 45.8    0.660    1.509   129.1    31.1    20.2
2010 04 24    14 41.44   +41 26.7    0.706    1.526   125.2    32.6    20.4
2010 05 04    14 21.32   +44 02.0    0.764    1.539   119.9    34.6    20.7
2010 05 14    14 03.95   +44 49.1    0.829    1.548   114.2    36.5    20.9
2010 05 24    13 51.53   +44 13.8    0.899    1.553   108.6    38.2    21.2
2010 06 03    13 44.66   +42 41.7    0.969    1.555   103.2    39.4    21.4
2010 06 13    13 42.93   +40 31.4    1.038    1.552    98.2    40.4    21.5
2010 06 23    13 45.64   +37 55.5    1.103    1.545    93.5    41.0    21.7
2010 07 03    13 51.96   +35 02.7    1.164    1.535    89.2    41.5    21.8
2010 07 13    14 01.23   +31 57.5    1.219    1.520    85.2    41.8    21.9
2010 07 23    14 12.99   +28 43.1    1.268    1.502    81.4    42.0    21.9
2010 08 02    14 26.85   +25 21.7    1.309    1.479    77.9    42.1    22.0
2010 08 12    14 42.57   +21 54.3    1.344    1.453    74.6    42.3    22.0
2010 08 22    15 00.04   +18 22.0    1.372    1.422    71.5    42.4    22.0
2010 09 01    15 19.16   +14 45.8    1.394    1.388    68.5    42.5    22.0
2010 09 11    15 39.93   +11 06.1    1.408    1.351    65.6    42.7    22.0
2010 09 21    16 02.39   +07 24.3    1.417    1.309    62.8    43.0    21.9
2010 10 01    16 26.59   +03 41.5    1.420    1.264    60.0    43.3    21.8

Timothy B. Spahr             (C) Copyright 2010 MPC           M.P.E.C. 2010-D38

Read MPEC 2010-D37 Read MPEC 2010-D39


MPEC number:

Enter an MPEC number in one of the following forms:

  • 1997-B01 (the full form)
  • J97B01 (the packed version of the full form)
  • B01 (the abbreviated form)

Valid HTML 4.01!